Time,TemperatureF,DewpointF,PressureIn,WindDirection,WindDirectionDegrees,WindSpeedMPH,WindSpeedGustMPH,Humidity,HourlyPrecipIn,Conditions,Clouds,dailyrainin,SoftwareType,DateUTC
2013-09-03 00:03:00,68.4,0.0,29.64,NE,45,0.0,1.1,0,0.00,,,0.00,WUHU216HW,2013-09-03 04:03:00,
2013-09-03 00:08:00,68.4,0.0,29.64,NE,45,0.4,0.9,0,0.00,,,0.00,WUHU216HW,2013-09-03 04:08:00,
2013-09-03 00:13:00,68.4,0.0,29.64,NNW,338,1.1,1.1,0,0.00,,,0.00,WUHU216HW,2013-09-03 04:13:00,
2013-09-03 00:18:00,68.4,0.0,29.64,NNW,338,0.0,1.1,0,0.00,,,0.00,WUHU216HW,2013-09-03 04:18:00,
2013-09-03 00:23:00,68.4,0.0,29.64,NNW,338,0.0,0.4,0,0.00,,,0.00,WUHU216HW,2013-09-03 04:23:00,
2013-09-03 00:28:00,68.6,0.0,29.64,NNW,338,0.4,0.4,0,0.00,,,0.00,WUHU216HW,2013-09-03 04:28:00,
2013-09-03 00:33:00,68.6,0.0,29.64,NNW,338,0.0,0.4,0,0.00,,,0.00,WUHU216HW,2013-09-03 04:33:00,
2013-09-03 00:38:00,68.8,0.0,29.64,North,0,0.0,1.1,0,0.00,,,0.00,WUHU216HW,2013-09-03 04:38:00,
2013-09-03 00:43:00,68.9,0.0,29.64,North,0,0.7,1.1,0,0.00,,,0.00,WUHU216HW,2013-09-03 04:43:00,
2013-09-03 00:48:00,68.9,0.0,29.64,NNW,338,0.2,1.1,0,0.00,,,0.00,WUHU216HW,2013-09-03 04:48:00,
2013-09-03 00:53:00,69.1,0.0,29.64,NNW,338,0.4,1.1,0,0.00,,,0.00,WUHU216HW,2013-09-03 04:53:00,
2013-09-03 00:58:00,69.1,0.0,29.64,NNW,338,0.2,0.9,0,0.00,,,0.00,WUHU216HW,2013-09-03 04:58:00,
2013-09-03 01:03:00,69.1,0.0,29.64,NNW,338,0.0,0.7,0,0.00,,,0.00,WUHU216HW,2013-09-03 05:03:00,
2013-09-03 01:08:00,69.1,0.0,29.64,NNW,338,0.0,0.7,0,0.00,,,0.00,WUHU216HW,2013-09-03 05:08:00,
2013-09-03 01:13:00,69.1,0.0,29.64,NNW,338,0.7,0.7,0,0.00,,,0.00,WUHU216HW,2013-09-03 05:13:00,
2013-09-03 01:18:00,68.9,0.0,29.63,NNW,338,0.4,1.1,0,0.00,,,0.00,WUHU216HW,2013-09-03 05:18:00,
2013-09-03 01:23:00,68.8,0.0,29.62,NE,45,0.2,1.1,0,0.00,,,0.00,WUHU216HW,2013-09-03 05:23:00,
2013-09-03 01:28:00,68.8,0.0,29.62,NE,45,0.0,0.4,0,0.00,,,0.00,WUHU216HW,2013-09-03 05:28:00,
2013-09-03 01:33:00,68.6,0.0,29.62,NNW,338,0.7,0.7,0,0.00,,,0.00,WUHU216HW,2013-09-03 05:33:00,
2013-09-03 01:38:00,68.2,0.0,29.62,NW,315,0.0,1.8,0,0.00,,,0.00,WUHU216HW,2013-09-03 05:38:00,
2013-09-03 01:43:00,68.0,0.0,29.62,NW,315,0.7,1.8,0,0.00,,,0.00,WUHU216HW,2013-09-03 05:43:00,
2013-09-03 01:48:00,68.0,0.0,29.62,NW,315,0.0,0.7,0,0.00,,,0.00,WUHU216HW,2013-09-03 05:48:00,
2013-09-03 01:53:00,68.0,0.0,29.62,SSW,203,1.6,1.6,0,0.00,,,0.00,WUHU216HW,2013-09-03 05:53:00,
2013-09-03 01:58:00,68.2,0.0,29.63,WSW,248,0.0,2.5,0,0.00,,,0.00,WUHU216HW,2013-09-03 05:58:00,
2013-09-03 02:03:00,68.2,0.0,29.61,ENE,68,0.7,2.5,0,0.00,,,0.00,WUHU216HW,2013-09-03 06:03:00,
2013-09-03 02:08:00,68.2,0.0,29.60,WSW,248,0.0,1.8,0,0.00,,,0.00,WUHU216HW,2013-09-03 06:08:00,
2013-09-03 02:13:00,68.2,0.0,29.60,WSW,248,0.4,1.8,0,0.00,,,0.00,WUHU216HW,2013-09-03 06:13:00,
2013-09-03 02:18:00,68.2,0.0,29.60,WSW,248,0.2,1.1,0,0.00,,,0.00,WUHU216HW,2013-09-03 06:18:00,
2013-09-03 02:23:00,68.0,0.0,29.59,WSW,248,0.0,0.9,0,0.00,,,0.00,WUHU216HW,2013-09-03 06:23:00,
2013-09-03 02:28:00,68.0,0.0,29.59,WNW,293,0.0,0.4,0,0.00,,,0.00,WUHU216HW,2013-09-03 06:28:00,
2013-09-03 02:33:00,68.0,0.0,29.59,West,270,0.0,1.1,0,0.00,,,0.00,WUHU216HW,2013-09-03 06:33:00,
2013-09-03 02:38:00,67.9,0.0,29.58,WNW,293,0.0,1.1,0,0.00,,,0.00,WUHU216HW,2013-09-03 06:38:00,
2013-09-03 02:43:00,67.7,0.0,29.58,WNW,293,0.0,0.9,0,0.00,,,0.00,WUHU216HW,2013-09-03 06:43:00,
2013-09-03 02:49:00,67.5,0.0,29.59,WNW,293,0.0,0.0,0,0.00,,,0.00,WUHU216HW,2013-09-03 06:49:00,
2013-09-03 02:54:00,67.3,0.0,29.59,WNW,293,0.0,0.0,0,0.00,,,0.00,WUHU216HW,2013-09-03 06:54:00,
2013-09-03 02:59:00,67.1,0.0,29.59,WNW,293,0.0,0.7,0,0.00,,,0.00,WUHU216HW,2013-09-03 06:59:00,
2013-09-03 03:04:00,67.1,0.0,29.59,WNW,293,0.0,0.7,0,0.00,,,0.00,WUHU216HW,2013-09-03 07:04:00,
2013-09-03 03:09:00,67.0,0.0,29.59,WNW,293,0.0,0.0,0,0.00,,,0.00,WUHU216HW,2013-09-03 07:09:00,
2013-09-03 03:14:00,67.0,0.0,29.59,WNW,293,0.0,0.0,0,0.00,,,0.00,WUHU216HW,2013-09-03 07:14:00,
2013-09-03 03:19:00,66.8,0.0,29.59,WNW,293,0.0,0.0,0,0.00,,,0.00,WUHU216HW,2013-09-03 07:19:00,
2013-09-03 03:24:00,66.6,0.0,29.59,WNW,293,0.0,0.0,0,0.00,,,0.00,WUHU216HW,2013-09-03 07:24:00,
2013-09-03 03:29:00,66.4,0.0,29.58,WNW,293,0.0,0.0,0,0.00,,,0.00,WUHU216HW,2013-09-03 07:29:00,
2013-09-03 03:34:00,66.4,0.0,29.58,WNW,293,0.0,0.0,0,0.00,,,0.00,WUHU216HW,2013-09-03 07:34:00,
2013-09-03 03:39:00,66.6,0.0,29.59,WNW,293,0.0,0.0,0,0.00,,,0.00,WUHU216HW,2013-09-03 07:39:00,
2013-09-03 03:44:00,66.6,0.0,29.59,WNW,293,0.0,0.0,0,0.00,,,0.00,WUHU216HW,2013-09-03 07:44:00,
2013-09-03 03:49:00,66.8,0.0,29.59,WNW,293,0.0,0.4,0,0.00,,,0.00,WUHU216HW,2013-09-03 07:49:00,
2013-09-03 03:54:00,67.0,0.0,29.59,WNW,293,0.0,0.4,0,0.00,,,0.00,WUHU216HW,2013-09-03 07:54:00,
2013-09-03 03:59:00,67.0,0.0,29.58,WNW,293,0.0,0.0,0,0.00,,,0.00,WUHU216HW,2013-09-03 07:59:00,
2013-09-03 04:04:00,67.1,0.0,29.59,WNW,293,0.0,0.0,0,0.00,,,0.00,WUHU216HW,2013-09-03 08:04:00,
2013-09-03 04:09:00,67.1,0.0,29.59,WNW,293,0.0,0.0,0,0.00,,,0.00,WUHU216HW,2013-09-03 08:09:00,
2013-09-03 04:14:00,67.3,0.0,29.59,WNW,293,0.0,0.0,0,0.00,,,0.00,WUHU216HW,2013-09-03 08:14:00,
2013-09-03 04:19:00,67.3,0.0,29.59,WNW,293,0.0,0.0,0,0.00,,,0.00,WUHU216HW,2013-09-03 08:19:00,
2013-09-03 04:24:00,67.5,0.0,29.58,WNW,293,0.0,0.0,0,0.00,,,0.00,WUHU216HW,2013-09-03 08:24:00,
2013-09-03 04:29:00,67.7,0.0,29.59,WNW,293,0.0,0.0,0,0.00,,,0.00,WUHU216HW,2013-09-03 08:29:00,
2013-09-03 04:34:00,67.7,0.0,29.59,WNW,293,0.4,0.4,0,0.00,,,0.00,WUHU216HW,2013-09-03 08:34:00,
2013-09-03 04:39:00,67.9,0.0,29.59,WNW,293,0.0,0.4,0,0.00,,,0.00,WUHU216HW,2013-09-03 08:39:00,
2013-09-03 04:44:00,67.9,0.0,29.59,WNW,293,0.0,0.4,0,0.00,,,0.00,WUHU216HW,2013-09-03 08:44:00,
2013-09-03 04:49:00,68.0,0.0,29.60,WNW,293,0.0,0.0,0,0.00,,,0.00,WUHU216HW,2013-09-03 08:49:00,
2013-09-03 04:54:00,68.0,0.0,29.60,WNW,293,0.0,0.0,0,0.00,,,0.00,WUHU216HW,2013-09-03 08:54:00,
2013-09-03 04:59:00,68.0,0.0,29.61,WNW,293,0.0,0.0,0,0.00,,,0.00,WUHU216HW,2013-09-03 08:59:00,
2013-09-03 05:04:00,68.0,0.0,29.61,WNW,293,0.0,0.0,0,0.00,,,0.00,WUHU216HW,2013-09-03 09:04:00,
2013-09-03 05:09:00,68.0,0.0,29.61,WNW,293,0.0,0.0,0,0.00,,,0.00,WUHU216HW,2013-09-03 09:09:00,
2013-09-03 05:14:00,68.0,0.0,29.61,WNW,293,0.0,0.0,0,0.00,,,0.00,WUHU216HW,2013-09-03 09:14:00,
2013-09-03 05:19:00,68.2,0.0,29.61,WNW,293,0.0,0.0,0,0.00,,,0.00,WUHU216HW,2013-09-03 09:19:00,
2013-09-03 05:24:00,68.2,0.0,29.61,WNW,293,0.0,0.0,0,0.00,,,0.00,WUHU216HW,2013-09-03 09:24:00,
2013-09-03 05:29:00,68.2,0.0,29.61,NE,45,1.6,1.6,0,0.00,,,0.00,WUHU216HW,2013-09-03 09:29:00,
2013-09-03 05:34:00,68.0,0.0,29.61,NE,45,0.0,1.6,0,0.00,,,0.00,WUHU216HW,2013-09-03 09:34:00,
2013-09-03 05:39:00,68.0,0.0,29.61,NE,45,0.0,1.1,0,0.00,,,0.00,WUHU216HW,2013-09-03 09:39:00,
2013-09-03 05:44:00,68.0,0.0,29.61,NE,45,0.0,0.0,0,0.00,,,0.00,WUHU216HW,2013-09-03 09:44:00,
2013-09-03 05:49:00,68.0,0.0,29.61,NE,45,0.0,0.0,0,0.00,,,0.00,WUHU216HW,2013-09-03 09:49:00,
2013-09-03 05:54:00,68.0,0.0,29.61,NE,45,0.0,0.0,0,0.00,,,0.00,WUHU216HW,2013-09-03 09:54:00,
2013-09-03 05:59:00,68.0,0.0,29.61,NE,45,0.0,0.0,0,0.00,,,0.00,WUHU216HW,2013-09-03 09:59:00,
2013-09-03 06:04:00,68.0,0.0,29.61,NE,45,0.0,0.0,0,0.00,,,0.00,WUHU216HW,2013-09-03 10:04:00,
2013-09-03 06:09:00,68.0,0.0,29.61,NE,45,0.0,0.0,0,0.00,,,0.00,WUHU216HW,2013-09-03 10:09:00,
2013-09-03 06:14:00,68.0,0.0,29.62,NE,45,0.0,0.2,0,0.00,,,0.00,WUHU216HW,2013-09-03 10:14:00,
2013-09-03 06:19:00,67.9,0.0,29.61,NE,45,0.2,0.7,0,0.00,,,0.00,WUHU216HW,2013-09-03 10:19:00,
2013-09-03 06:24:00,67.9,0.0,29.61,NNW,338,0.7,1.6,0,0.00,,,0.00,WUHU216HW,2013-09-03 10:24:00,
2013-09-03 06:29:00,67.7,0.0,29.61,NNW,338,0.4,1.6,0,0.00,,,0.00,WUHU216HW,2013-09-03 10:29:00,
2013-09-03 06:34:00,67.7,0.0,29.61,NNE,23,0.4,1.1,0,0.00,,,0.00,WUHU216HW,2013-09-03 10:34:00,
2013-09-03 06:39:00,67.5,0.0,29.61,NNW,338,0.0,1.1,0,0.00,,,0.00,WUHU216HW,2013-09-03 10:39:00,
2013-09-03 06:44:00,67.5,0.0,29.61,NNE,23,0.2,1.1,0,0.00,,,0.00,WUHU216HW,2013-09-03 10:44:00,
2013-09-03 06:49:00,67.5,0.0,29.61,North,0,0.7,0.7,0,0.00,,,0.00,WUHU216HW,2013-09-03 10:49:00,
2013-09-03 06:54:00,67.3,0.0,29.62,NNW,338,0.0,0.7,0,0.00,,,0.00,WUHU216HW,2013-09-03 10:54:00,
2013-09-03 06:59:00,67.5,0.0,29.63,NNW,338,0.0,0.2,0,0.00,,,0.00,WUHU216HW,2013-09-03 10:59:00,
2013-09-03 07:04:00,67.7,0.0,29.63,NNW,338,0.0,0.4,0,0.00,,,0.00,WUHU216HW,2013-09-03 11:04:00,
2013-09-03 07:09:00,67.7,0.0,29.63,NNW,338,0.7,0.7,0,0.00,,,0.00,WUHU216HW,2013-09-03 11:09:00,
2013-09-03 07:14:00,67.9,0.0,29.63,NNW,338,0.0,0.7,0,0.00,,,0.00,WUHU216HW,2013-09-03 11:14:00,
2013-09-03 07:19:00,68.0,0.0,29.63,NNW,338,0.0,0.0,0,0.00,,,0.00,WUHU216HW,2013-09-03 11:19:00,
2013-09-03 07:24:00,68.2,0.0,29.63,NNW,338,0.0,0.0,0,0.00,,,0.00,WUHU216HW,2013-09-03 11:24:00,
2013-09-03 07:29:00,68.0,0.0,29.63,NNW,338,0.0,0.0,0,0.00,,,0.00,WUHU216HW,2013-09-03 11:29:00,
2013-09-03 07:34:00,68.0,0.0,29.64,NNW,338,0.0,0.0,0,0.00,,,0.00,WUHU216HW,2013-09-03 11:34:00,
2013-09-03 07:39:00,68.0,0.0,29.64,NNW,338,0.0,0.0,0,0.00,,,0.00,WUHU216HW,2013-09-03 11:39:00,
2013-09-03 07:44:00,68.2,0.0,29.64,NNW,338,0.0,0.0,0,0.00,,,0.00,WUHU216HW,2013-09-03 11:44:00,
2013-09-03 07:49:00,68.4,0.0,29.64,NNW,338,0.2,0.4,0,0.00,,,0.00,WUHU216HW,2013-09-03 11:49:00,
2013-09-03 07:54:00,68.6,0.0,29.64,NNW,338,0.7,0.7,0,0.00,,,0.00,WUHU216HW,2013-09-03 11:54:00,
2013-09-03 07:59:00,68.8,0.0,29.64,NNW,338,0.0,0.9,0,0.00,,,0.00,WUHU216HW,2013-09-03 11:59:00,
2013-09-03 08:04:00,69.1,0.0,29.64,NNW,338,0.0,0.9,0,0.00,,,0.00,WUHU216HW,2013-09-03 12:04:00,
2013-09-03 08:09:00,69.5,0.0,29.64,NNW,338,0.0,0.0,0,0.00,,,0.00,WUHU216HW,2013-09-03 12:09:00,
2013-09-03 08:14:00,69.8,0.0,29.64,NNW,338,0.0,0.0,0,0.00,,,0.00,WUHU216HW,2013-09-03 12:14:00,
2013-09-03 08:19:00,70.2,0.0,29.64,NNW,338,0.0,0.0,0,0.00,,,0.00,WUHU216HW,2013-09-03 12:19:00,
2013-09-03 08:24:00,70.2,0.0,29.64,NNW,338,0.0,0.0,0,0.00,,,0.00,WUHU216HW,2013-09-03 12:24:00,
2013-09-03 08:29:00,70.4,0.0,29.64,NNW,338,0.0,0.0,0,0.00,,,0.00,WUHU216HW,2013-09-03 12:29:00,
2013-09-03 08:34:00,70.6,0.0,29.64,NNW,338,0.4,0.7,0,0.00,,,0.00,WUHU216HW,2013-09-03 12:34:00,
2013-09-03 08:39:00,70.6,0.0,29.64,NW,315,0.0,0.7,0,0.00,,,0.00,WUHU216HW,2013-09-03 12:39:00,
2013-09-03 08:44:00,70.7,0.0,29.64,NW,315,0.4,0.9,0,0.00,,,0.00,WUHU216HW,2013-09-03 12:44:00,
2013-09-03 08:49:00,70.7,0.0,29.65,NW,315,0.4,0.9,0,0.00,,,0.00,WUHU216HW,2013-09-03 12:49:00,
2013-09-03 08:54:00,70.6,0.0,29.65,NW,315,0.0,0.9,0,0.00,,,0.00,WUHU216HW,2013-09-03 12:54:00,
2013-09-03 08:59:00,70.7,0.0,29.65,NW,315,0.0,0.4,0,0.00,,,0.00,WUHU216HW,2013-09-03 12:59:00,
2013-09-03 09:04:00,70.6,0.0,29.65,WSW,248,1.3,1.8,0,0.00,,,0.00,WUHU216HW,2013-09-03 13:04:00,
2013-09-03 09:09:00,70.7,0.0,29.65,WSW,248,0.7,1.8,0,0.00,,,0.00,WUHU216HW,2013-09-03 13:09:00,
2013-09-03 09:14:00,70.9,0.0,29.65,WSW,248,0.0,1.8,0,0.00,,,0.00,WUHU216HW,2013-09-03 13:14:00,
2013-09-03 09:19:00,70.9,0.0,29.66,WSW,248,0.0,1.1,0,0.00,,,0.00,WUHU216HW,2013-09-03 13:19:00,
2013-09-03 09:24:00,70.7,0.0,29.65,WSW,248,0.0,0.4,0,0.00,,,0.00,WUHU216HW,2013-09-03 13:24:00,
2013-09-03 09:29:00,70.6,0.0,29.66,WSW,248,0.0,0.4,0,0.00,,,0.00,WUHU216HW,2013-09-03 13:29:00,
2013-09-03 09:34:00,70.9,0.0,29.66,WSW,248,0.0,0.0,0,0.00,,,0.00,WUHU216HW,2013-09-03 13:34:00,
2013-09-03 09:39:00,70.9,0.0,29.66,WSW,248,0.0,0.0,0,0.00,,,0.00,WUHU216HW,2013-09-03 13:39:00,
2013-09-03 09:44:00,70.7,0.0,29.66,WSW,248,0.0,0.0,0,0.00,,,0.00,WUHU216HW,2013-09-03 13:44:00,
2013-09-03 09:49:00,70.6,0.0,29.66,WSW,248,0.0,0.0,0,0.00,,,0.00,WUHU216HW,2013-09-03 13:49:00,
2013-09-03 09:54:00,70.4,0.0,29.66,WSW,248,0.0,0.0,0,0.00,,,0.00,WUHU216HW,2013-09-03 13:54:00,
2013-09-03 09:59:00,70.4,0.0,29.66,WSW,248,0.0,0.4,0,0.00,,,0.00,WUHU216HW,2013-09-03 13:59:00,
2013-09-03 10:04:00,70.7,0.0,29.66,WSW,248,0.0,0.4,0,0.00,,,0.00,WUHU216HW,2013-09-03 14:04:00,
2013-09-03 10:09:00,70.9,0.0,29.66,WSW,248,0.4,0.9,0,0.00,,,0.00,WUHU216HW,2013-09-03 14:09:00,
2013-09-03 10:14:00,70.9,0.0,29.66,WSW,248,0.0,0.9,0,0.00,,,0.00,WUHU216HW,2013-09-03 14:14:00,
2013-09-03 10:19:00,70.9,0.0,29.65,NNW,338,0.0,0.7,0,0.00,,,0.00,WUHU216HW,2013-09-03 14:19:00,
2013-09-03 10:24:00,71.1,0.0,29.65,North,0,0.7,0.9,0,0.00,,,0.00,WUHU216HW,2013-09-03 14:24:00,
2013-09-03 10:29:00,71.5,0.0,29.65,North,0,1.1,1.1,0,0.00,,,0.00,WUHU216HW,2013-09-03 14:29:00,
2013-09-03 10:34:00,71.8,0.0,29.65,ENE,68,0.0,1.8,0,0.00,,,0.00,WUHU216HW,2013-09-03 14:34:00,
2013-09-03 10:39:00,72.0,0.0,29.65,ENE,68,0.4,1.8,0,0.00,,,0.00,WUHU216HW,2013-09-03 14:39:00,
2013-09-03 10:44:00,72.2,0.0,29.65,ENE,68,0.4,0.4,0,0.00,,,0.00,WUHU216HW,2013-09-03 14:44:00,
2013-09-03 10:50:00,72.0,0.0,29.65,ENE,68,0.0,0.4,0,0.00,,,0.00,WUHU216HW,2013-09-03 14:50:00,
2013-09-03 10:55:00,72.4,0.0,29.65,North,0,0.9,0.9,0,0.00,,,0.00,WUHU216HW,2013-09-03 14:55:00,
2013-09-03 11:00:00,72.7,0.0,29.65,SSW,203,0.2,0.9,0,0.00,,,0.00,WUHU216HW,2013-09-03 15:00:00,
2013-09-03 11:05:00,72.9,0.0,29.65,SSW,203,0.4,0.9,0,0.00,,,0.00,WUHU216HW,2013-09-03 15:05:00,
2013-09-03 11:10:00,73.1,0.0,29.65,WSW,248,0.0,0.4,0,0.00,,,0.00,WUHU216HW,2013-09-03 15:10:00,
2013-09-03 11:15:00,73.4,0.0,29.64,NW,315,1.1,1.6,0,0.00,,,0.00,WUHU216HW,2013-09-03 15:15:00,
2013-09-03 11:20:00,73.6,0.0,29.65,WNW,293,0.7,1.6,0,0.00,,,0.00,WUHU216HW,2013-09-03 15:20:00,
2013-09-03 11:25:00,73.4,0.0,29.65,NNE,23,0.0,1.3,0,0.00,,,0.00,WUHU216HW,2013-09-03 15:25:00,
2013-09-03 11:30:00,73.4,0.0,29.65,NNW,338,1.6,1.6,0,0.00,,,0.00,WUHU216HW,2013-09-03 15:30:00,
2013-09-03 11:35:00,72.9,0.0,29.65,ENE,68,0.0,1.6,0,0.00,,,0.00,WUHU216HW,2013-09-03 15:35:00,
2013-09-03 11:40:00,72.7,0.0,29.64,NE,45,0.9,1.6,0,0.00,,,0.00,WUHU216HW,2013-09-03 15:40:00,
2013-09-03 11:45:00,72.4,0.0,29.65,West,270,1.1,1.1,0,0.00,,,0.00,WUHU216HW,2013-09-03 15:45:00,
2013-09-03 11:50:00,72.4,0.0,29.65,SW,225,2.0,2.0,0,0.00,,,0.00,WUHU216HW,2013-09-03 15:50:00,
2013-09-03 11:55:00,72.2,0.0,29.65,SSE,158,0.4,2.0,0,0.00,,,0.00,WUHU216HW,2013-09-03 15:55:00,
2013-09-03 12:00:00,72.4,0.0,29.65,SSE,158,1.8,1.8,0,0.00,,,0.00,WUHU216HW,2013-09-03 16:00:00,
2013-09-03 12:05:00,72.7,0.0,29.65,WNW,293,0.4,1.8,0,0.00,,,0.00,WUHU216HW,2013-09-03 16:05:00,
2013-09-03 12:10:00,73.1,0.0,29.64,SW,225,0.9,1.6,0,0.00,,,0.00,WUHU216HW,2013-09-03 16:10:00,
2013-09-03 12:15:00,73.8,0.0,29.64,NW,315,0.4,1.6,0,0.00,,,0.00,WUHU216HW,2013-09-03 16:15:00,
2013-09-03 12:20:00,74.2,0.0,29.64,East,90,1.8,2.0,0,0.00,,,0.00,WUHU216HW,2013-09-03 16:20:00,
2013-09-03 12:25:00,74.9,0.0,29.65,North,0,1.8,2.0,0,0.00,,,0.00,WUHU216HW,2013-09-03 16:25:00,
2013-09-03 12:30:00,74.9,0.0,29.65,NNE,23,1.1,1.8,0,0.00,,,0.00,WUHU216HW,2013-09-03 16:30:00,
2013-09-03 12:35:00,75.4,0.0,29.65,SW,225,2.0,2.0,0,0.00,,,0.00,WUHU216HW,2013-09-03 16:35:00,
2013-09-03 12:40:00,75.2,0.0,29.65,South,180,2.2,2.2,0,0.00,,,0.00,WUHU216HW,2013-09-03 16:40:00,
2013-09-03 12:45:00,74.7,0.0,29.65,WSW,248,0.9,2.2,0,0.00,,,0.00,WUHU216HW,2013-09-03 16:45:00,
2013-09-03 12:50:00,73.8,0.0,29.65,West,270,3.4,3.4,0,0.00,,,0.00,WUHU216HW,2013-09-03 16:50:00,
2013-09-03 12:55:00,73.8,0.0,29.65,WNW,293,0.7,3.4,0,0.00,,,0.00,WUHU216HW,2013-09-03 16:55:00,
2013-09-03 13:00:00,73.3,0.0,29.66,WNW,293,1.6,2.5,0,0.00,,,0.00,WUHU216HW,2013-09-03 17:00:00,
2013-09-03 13:05:00,72.5,0.0,29.66,NNW,338,2.2,6.0,0,0.00,,,0.00,WUHU216HW,2013-09-03 17:05:00,
2013-09-03 13:10:00,72.4,0.0,29.66,SSE,158,1.1,6.0,0,0.00,,,0.00,WUHU216HW,2013-09-03 17:10:00,
2013-09-03 13:15:00,72.2,0.0,29.66,WSW,248,0.0,2.7,0,0.00,,,0.00,WUHU216HW,2013-09-03 17:15:00,
2013-09-03 13:20:00,72.2,0.0,29.65,SE,135,2.2,2.2,0,0.00,,,0.00,WUHU216HW,2013-09-03 17:20:00,
2013-09-03 13:25:00,71.1,0.0,29.66,SSE,158,1.8,2.2,0,0.00,,,0.00,WUHU216HW,2013-09-03 17:25:00,
2013-09-03 13:30:00,70.7,0.0,29.66,NW,315,1.1,1.8,0,0.00,,,0.00,WUHU216HW,2013-09-03 17:30:00,
2013-09-03 13:35:00,70.6,0.0,29.66,South,180,0.7,1.6,0,0.00,,,0.00,WUHU216HW,2013-09-03 17:35:00,
2013-09-03 13:40:00,70.4,0.0,29.66,SSE,158,0.4,1.6,0,0.00,,,0.00,WUHU216HW,2013-09-03 17:40:00,
2013-09-03 13:45:00,70.4,0.0,29.66,NE,45,1.6,1.6,0,0.00,,,0.00,WUHU216HW,2013-09-03 17:45:00,
2013-09-03 13:50:00,70.2,0.0,29.65,NE,45,1.1,2.0,0,0.00,,,0.00,WUHU216HW,2013-09-03 17:50:00,
2013-09-03 13:55:00,70.9,0.0,29.65,East,90,0.9,2.0,0,0.00,,,0.00,WUHU216HW,2013-09-03 17:55:00,
2013-09-03 14:00:00,72.4,0.0,29.65,WSW,248,1.1,2.0,0,0.00,,,0.00,WUHU216HW,2013-09-03 18:00:00,
2013-09-03 14:05:00,74.0,0.0,29.65,SW,225,1.8,3.6,0,0.00,,,0.00,WUHU216HW,2013-09-03 18:05:00,
2013-09-03 14:10:00,75.1,0.0,29.64,WSW,248,0.7,3.6,0,0.00,,,0.00,WUHU216HW,2013-09-03 18:10:00,
2013-09-03 14:15:00,76.0,0.0,29.64,SSE,158,1.6,2.9,0,0.00,,,0.00,WUHU216HW,2013-09-03 18:15:00,
2013-09-03 14:20:00,75.8,0.0,29.64,WSW,248,1.1,3.1,0,0.00,,,0.00,WUHU216HW,2013-09-03 18:20:00,
2013-09-03 14:25:00,76.0,0.0,29.64,West,270,1.6,3.1,0,0.00,,,0.00,WUHU216HW,2013-09-03 18:25:00,
2013-09-03 14:30:00,76.7,0.0,29.64,SW,225,1.8,2.2,0,0.00,,,0.00,WUHU216HW,2013-09-03 18:30:00,
2013-09-03 14:35:00,77.0,0.0,29.64,NNW,338,5.1,5.1,0,0.00,,,0.00,WUHU216HW,2013-09-03 18:35:00,
2013-09-03 14:40:00,76.1,0.0,29.64,SW,225,1.8,5.1,0,0.00,,,0.00,WUHU216HW,2013-09-03 18:40:00,
2013-09-03 14:45:00,76.0,0.0,29.64,West,270,1.6,5.1,0,0.00,,,0.00,WUHU216HW,2013-09-03 18:45:00,
2013-09-03 14:50:00,76.7,0.0,29.64,South,180,0.4,2.0,0,0.00,,,0.00,WUHU216HW,2013-09-03 18:50:00,
2013-09-03 14:55:00,76.3,0.0,29.64,SE,135,1.1,2.2,0,0.00,,,0.00,WUHU216HW,2013-09-03 18:55:00,
2013-09-03 15:00:00,75.4,0.0,29.64,SW,225,1.1,2.2,0,0.00,,,0.00,WUHU216HW,2013-09-03 19:00:00,
2013-09-03 15:05:00,74.7,0.0,29.64,West,270,0.4,1.6,0,0.00,,,0.00,WUHU216HW,2013-09-03 19:05:00,
2013-09-03 15:10:00,74.3,0.0,29.64,NE,45,1.6,1.6,0,0.00,,,0.00,WUHU216HW,2013-09-03 19:10:00,
2013-09-03 15:15:00,74.3,0.0,29.64,SE,135,0.4,1.6,0,0.00,,,0.00,WUHU216HW,2013-09-03 19:15:00,
2013-09-03 15:20:00,74.3,0.0,29.64,ESE,113,1.1,1.1,0,0.00,,,0.00,WUHU216HW,2013-09-03 19:20:00,
2013-09-03 15:25:00,73.8,0.0,29.64,NW,315,0.2,2.9,0,0.00,,,0.00,WUHU216HW,2013-09-03 19:25:00,
2013-09-03 15:30:00,73.4,0.0,29.64,WSW,248,0.7,2.9,0,0.00,,,0.00,WUHU216HW,2013-09-03 19:30:00,
2013-09-03 15:35:00,73.3,0.0,29.64,SSW,203,1.3,2.0,0,0.00,,,0.00,WUHU216HW,2013-09-03 19:35:00,
2013-09-03 15:40:00,72.7,0.0,29.64,East,90,1.3,2.0,0,0.00,,,0.00,WUHU216HW,2013-09-03 19:40:00,
2013-09-03 15:45:00,72.7,0.0,29.64,WSW,248,0.4,1.3,0,0.00,,,0.00,WUHU216HW,2013-09-03 19:45:00,
2013-09-03 15:50:00,72.7,0.0,29.64,West,270,0.0,0.7,0,0.00,,,0.00,WUHU216HW,2013-09-03 19:50:00,
2013-09-03 15:55:00,73.1,0.0,29.64,NNE,23,0.7,2.0,0,0.00,,,0.00,WUHU216HW,2013-09-03 19:55:00,
2013-09-03 16:00:00,73.3,0.0,29.64,ENE,68,0.4,2.0,0,0.00,,,0.00,WUHU216HW,2013-09-03 20:00:00,
2013-09-03 16:05:00,73.3,0.0,29.63,NNE,23,0.4,1.6,0,0.00,,,0.00,WUHU216HW,2013-09-03 20:05:00,
2013-09-03 16:10:00,73.1,0.0,29.63,WNW,293,1.6,2.2,0,0.00,,,0.00,WUHU216HW,2013-09-03 20:10:00,
2013-09-03 16:15:00,72.7,0.0,29.63,South,180,0.0,2.2,0,0.00,,,0.00,WUHU216HW,2013-09-03 20:15:00,
2013-09-03 16:20:00,72.5,0.0,29.63,ENE,68,0.0,1.3,0,0.00,,,0.00,WUHU216HW,2013-09-03 20:20:00,
2013-09-03 16:25:00,72.5,0.0,29.64,NW,315,1.1,1.6,0,0.00,,,0.00,WUHU216HW,2013-09-03 20:25:00,
2013-09-03 16:30:00,72.2,0.0,29.64,West,270,0.2,1.6,0,0.00,,,0.00,WUHU216HW,2013-09-03 20:30:00,
2013-09-03 16:35:00,72.0,0.0,29.64,NE,45,0.4,1.1,0,0.00,,,0.00,WUHU216HW,2013-09-03 20:35:00,
2013-09-03 16:40:00,71.8,0.0,29.64,SSE,158,0.0,1.8,0,0.00,,,0.00,WUHU216HW,2013-09-03 20:40:00,
2013-09-03 16:45:00,71.6,0.0,29.64,NNE,23,0.0,1.8,0,0.00,,,0.00,WUHU216HW,2013-09-03 20:45:00,
2013-09-03 16:50:00,71.8,0.0,29.64,NNW,338,0.4,1.3,0,0.00,,,0.00,WUHU216HW,2013-09-03 20:50:00,
2013-09-03 16:55:00,72.0,0.0,29.64,NNW,338,0.9,2.7,0,0.00,,,0.00,WUHU216HW,2013-09-03 20:55:00,
2013-09-03 17:00:00,72.2,0.0,29.64,NW,315,0.0,2.7,0,0.00,,,0.00,WUHU216HW,2013-09-03 21:00:00,
2013-09-03 17:05:00,72.0,0.0,29.64,SE,135,0.9,1.6,0,0.00,,,0.00,WUHU216HW,2013-09-03 21:05:00,
2013-09-03 17:10:00,71.5,0.0,29.64,ENE,68,0.0,1.6,0,0.00,,,0.00,WUHU216HW,2013-09-03 21:10:00,
2013-09-03 17:15:00,71.1,0.0,29.65,SSE,158,1.1,1.1,0,0.00,,,0.00,WUHU216HW,2013-09-03 21:15:00,
2013-09-03 17:20:00,70.7,0.0,29.65,ENE,68,0.2,1.1,0,0.00,,,0.00,WUHU216HW,2013-09-03 21:20:00,
2013-09-03 17:25:00,70.4,0.0,29.65,North,0,0.0,0.4,0,0.00,,,0.00,WUHU216HW,2013-09-03 21:25:00,
2013-09-03 17:30:00,70.2,0.0,29.65,NNE,23,0.0,1.1,0,0.00,,,0.00,WUHU216HW,2013-09-03 21:30:00,
2013-09-03 17:35:00,70.4,0.0,29.65,NNW,338,0.0,1.1,0,0.00,,,0.00,WUHU216HW,2013-09-03 21:35:00,
2013-09-03 17:40:00,70.4,0.0,29.65,North,0,1.8,1.8,0,0.00,,,0.00,WUHU216HW,2013-09-03 21:40:00,
2013-09-03 17:45:00,70.0,0.0,29.65,SSW,203,1.1,2.2,0,0.00,,,0.00,WUHU216HW,2013-09-03 21:45:00,
2013-09-03 17:50:00,69.7,0.0,29.65,NNW,338,0.0,2.2,0,0.00,,,0.00,WUHU216HW,2013-09-03 21:50:00,
2013-09-03 17:55:00,69.5,0.0,29.65,ESE,113,2.7,2.7,0,0.00,,,0.00,WUHU216HW,2013-09-03 21:55:00,
2013-09-03 18:00:00,68.9,0.0,29.65,ENE,68,0.4,2.7,0,0.00,,,0.00,WUHU216HW,2013-09-03 22:00:00,
2013-09-03 18:05:00,68.4,0.0,29.65,North,0,1.1,1.3,0,0.00,,,0.00,WUHU216HW,2013-09-03 22:05:00,
2013-09-03 18:10:00,68.0,0.0,29.65,North,0,0.0,1.3,0,0.00,,,0.00,WUHU216HW,2013-09-03 22:10:00,
2013-09-03 18:15:00,67.9,0.0,29.66,North,0,0.0,0.4,0,0.00,,,0.00,WUHU216HW,2013-09-03 22:15:00,
2013-09-03 18:20:00,67.3,0.0,29.66,North,0,0.0,0.4,0,0.00,,,0.00,WUHU216HW,2013-09-03 22:20:00,
2013-09-03 18:25:00,67.0,0.0,29.66,WSW,248,0.0,0.4,0,0.00,,,0.00,WUHU216HW,2013-09-03 22:25:00,
2013-09-03 18:30:00,66.8,0.0,29.67,West,270,0.0,0.4,0,0.00,,,0.00,WUHU216HW,2013-09-03 22:30:00,
2013-09-03 18:36:00,66.6,0.0,29.67,NNW,338,0.0,0.4,0,0.00,,,0.00,WUHU216HW,2013-09-03 22:36:00,
2013-09-03 18:41:00,66.2,0.0,29.66,North,0,0.0,0.4,0,0.00,,,0.00,WUHU216HW,2013-09-03 22:41:00,
2013-09-03 18:46:00,65.7,0.0,29.67,North,0,0.0,0.4,0,0.00,,,0.00,WUHU216HW,2013-09-03 22:46:00,
2013-09-03 18:51:00,65.3,0.0,29.67,North,0,0.0,0.4,0,0.00,,,0.00,WUHU216HW,2013-09-03 22:51:00,
2013-09-03 18:56:00,65.2,0.0,29.67,North,0,0.2,0.4,0,0.00,,,0.00,WUHU216HW,2013-09-03 22:56:00,
2013-09-03 19:01:00,64.8,0.0,29.67,NNE,23,1.8,1.8,0,0.00,,,0.00,WUHU216HW,2013-09-03 23:01:00,
2013-09-03 19:06:00,64.4,0.0,29.67,NNE,23,0.0,1.8,0,0.00,,,0.00,WUHU216HW,2013-09-03 23:06:00,
2013-09-03 19:11:00,64.1,0.0,29.67,North,0,0.0,1.1,0,0.00,,,0.00,WUHU216HW,2013-09-03 23:11:00,
2013-09-03 19:16:00,63.7,0.0,29.67,North,0,0.4,1.1,0,0.00,,,0.00,WUHU216HW,2013-09-03 23:16:00,
2013-09-03 19:21:00,63.4,0.0,29.68,ESE,113,1.6,1.6,0,0.00,,,0.00,WUHU216HW,2013-09-03 23:21:00,
2013-09-03 19:26:00,63.2,0.0,29.68,East,90,0.0,1.6,0,0.00,,,0.00,WUHU216HW,2013-09-03 23:26:00,
2013-09-03 19:31:00,63.0,0.0,29.68,East,90,0.0,0.4,0,0.00,,,0.00,WUHU216HW,2013-09-03 23:31:00,
2013-09-03 19:36:00,62.6,0.0,29.68,ENE,68,0.0,1.3,0,0.00,,,0.00,WUHU216HW,2013-09-03 23:36:00,
2013-09-03 19:41:00,62.3,0.0,29.68,East,90,0.0,1.3,0,0.00,,,0.00,WUHU216HW,2013-09-03 23:41:00,
2013-09-03 19:46:00,62.1,0.0,29.69,East,90,0.0,1.1,0,0.00,,,0.00,WUHU216HW,2013-09-03 23:46:00,
2013-09-03 19:51:00,61.9,0.0,29.69,East,90,0.0,0.0,0,0.00,,,0.00,WUHU216HW,2013-09-03 23:51:00,
2013-09-03 19:56:00,61.6,0.0,29.69,East,90,0.0,0.0,0,0.00,,,0.00,WUHU216HW,2013-09-03 23:56:00,
2013-09-03 20:01:00,61.6,0.0,29.69,East,90,0.0,0.0,0,0.00,,,0.00,WUHU216HW,2013-09-04 00:01:00,
2013-09-03 20:06:00,61.4,0.0,29.69,East,90,0.0,0.2,0,0.00,,,0.00,WUHU216HW,2013-09-04 00:06:00,
2013-09-03 20:11:00,61.2,0.0,29.69,East,90,0.0,0.2,0,0.00,,,0.00,WUHU216HW,2013-09-04 00:11:00,
2013-09-03 20:16:00,61.2,0.0,29.70,East,90,0.0,0.0,0,0.00,,,0.00,WUHU216HW,2013-09-04 00:16:00,
2013-09-03 20:21:00,61.0,0.0,29.70,East,90,0.0,0.0,0,0.00,,,0.00,WUHU216HW,2013-09-04 00:21:00,
2013-09-03 20:26:00,60.8,0.0,29.71,East,90,0.0,0.0,0,0.00,,,0.00,WUHU216HW,2013-09-04 00:26:00,
2013-09-03 20:31:00,60.7,0.0,29.71,East,90,0.0,0.0,0,0.00,,,0.00,WUHU216HW,2013-09-04 00:31:00,
2013-09-03 20:36:00,60.5,0.0,29.71,East,90,0.0,0.0,0,0.00,,,0.00,WUHU216HW,2013-09-04 00:36:00,
2013-09-03 20:41:00,60.1,0.0,29.71,East,90,0.0,0.0,0,0.00,,,0.00,WUHU216HW,2013-09-04 00:41:00,
2013-09-03 20:46:00,59.9,0.0,29.71,East,90,0.0,0.0,0,0.00,,,0.00,WUHU216HW,2013-09-04 00:46:00,
2013-09-03 20:51:00,59.8,0.0,29.71,East,90,0.0,0.0,0,0.00,,,0.00,WUHU216HW,2013-09-04 00:51:00,
2013-09-03 20:56:00,59.6,0.0,29.71,East,90,0.0,0.0,0,0.00,,,0.00,WUHU216HW,2013-09-04 00:56:00,
2013-09-03 21:01:00,59.4,0.0,29.72,East,90,0.2,0.2,0,0.00,,,0.00,WUHU216HW,2013-09-04 01:01:00,
2013-09-03 21:06:00,59.4,0.0,29.72,ENE,68,0.0,0.4,0,0.00,,,0.00,WUHU216HW,2013-09-04 01:06:00,
2013-09-03 21:11:00,59.2,0.0,29.72,ENE,68,0.0,0.4,0,0.00,,,0.00,WUHU216HW,2013-09-04 01:11:00,
2013-09-03 21:16:00,59.0,0.0,29.72,ENE,68,0.0,0.4,0,0.00,,,0.00,WUHU216HW,2013-09-04 01:16:00,
2013-09-03 21:21:00,59.0,0.0,29.72,ENE,68,0.0,0.9,0,0.00,,,0.00,WUHU216HW,2013-09-04 01:21:00,
2013-09-03 21:26:00,58.9,0.0,29.72,ESE,113,0.4,1.8,0,0.00,,,0.00,WUHU216HW,2013-09-04 01:26:00,
2013-09-03 21:31:00,58.9,0.0,29.72,ESE,113,0.0,1.8,0,0.00,,,0.00,WUHU216HW,2013-09-04 01:31:00,
2013-09-03 21:36:00,58.7,0.0,29.72,ESE,113,0.0,0.4,0,0.00,,,0.00,WUHU216HW,2013-09-04 01:36:00,
2013-09-03 21:41:00,58.7,0.0,29.73,ESE,113,0.4,0.7,0,0.00,,,0.00,WUHU216HW,2013-09-04 01:41:00,
2013-09-03 21:46:00,58.5,0.0,29.72,ESE,113,0.0,0.7,0,0.00,,,0.00,WUHU216HW,2013-09-04 01:46:00,
2013-09-03 21:51:00,58.5,0.0,29.73,ESE,113,0.0,0.0,0,0.00,,,0.00,WUHU216HW,2013-09-04 01:51:00,
2013-09-03 21:56:00,58.3,0.0,29.73,ESE,113,0.0,0.0,0,0.00,,,0.00,WUHU216HW,2013-09-04 01:56:00,
2013-09-03 22:01:00,58.3,0.0,29.73,ESE,113,0.0,0.0,0,0.00,,,0.00,WUHU216HW,2013-09-04 02:01:00,
2013-09-03 22:06:00,58.0,0.0,29.73,ESE,113,0.0,0.0,0,0.00,,,0.00,WUHU216HW,2013-09-04 02:06:00,
2013-09-03 22:11:00,57.8,0.0,29.73,ESE,113,0.0,0.0,0,0.00,,,0.00,WUHU216HW,2013-09-04 02:11:00,
2013-09-03 22:16:00,57.6,0.0,29.73,ESE,113,0.0,0.0,0,0.00,,,0.00,WUHU216HW,2013-09-04 02:16:00,
2013-09-03 22:21:00,57.4,0.0,29.73,ESE,113,0.0,0.0,0,0.00,,,0.00,WUHU216HW,2013-09-04 02:21:00,
2013-09-03 22:26:00,57.2,0.0,29.74,ESE,113,0.0,0.0,0,0.00,,,0.00,WUHU216HW,2013-09-04 02:26:00,
2013-09-03 22:31:00,57.2,0.0,29.73,ESE,113,0.0,0.0,0,0.00,,,0.00,WUHU216HW,2013-09-04 02:31:00,
2013-09-03 22:36:00,57.2,0.0,29.74,ESE,113,0.0,0.0,0,0.00,,,0.00,WUHU216HW,2013-09-04 02:36:00,
2013-09-03 22:41:00,57.1,0.0,29.74,ESE,113,0.0,0.0,0,0.00,,,0.00,WUHU216HW,2013-09-04 02:41:00,
2013-09-03 22:46:00,56.9,0.0,29.74,ESE,113,0.0,0.0,0,0.00,,,0.00,WUHU216HW,2013-09-04 02:46:00,
2013-09-03 22:51:00,56.7,0.0,29.74,ESE,113,0.0,0.0,0,0.00,,,0.00,WUHU216HW,2013-09-04 02:51:00,
2013-09-03 22:56:00,56.5,0.0,29.74,ESE,113,0.0,0.0,0,0.00,,,0.00,WUHU216HW,2013-09-04 02:56:00,
2013-09-03 23:01:00,56.3,0.0,29.74,ESE,113,0.0,0.0,0,0.00,,,0.00,WUHU216HW,2013-09-04 03:01:00,
2013-09-03 23:06:00,56.2,0.0,29.74,ESE,113,0.0,0.0,0,0.00,,,0.00,WUHU216HW,2013-09-04 03:06:00,
2013-09-03 23:11:00,56.2,0.0,29.74,ESE,113,0.0,0.2,0,0.00,,,0.00,WUHU216HW,2013-09-04 03:11:00,
2013-09-03 23:16:00,56.0,0.0,29.74,ESE,113,0.0,0.2,0,0.00,,,0.00,WUHU216HW,2013-09-04 03:16:00,
2013-09-03 23:21:00,56.0,0.0,29.74,ESE,113,0.0,0.0,0,0.00,,,0.00,WUHU216HW,2013-09-04 03:21:00,
2013-09-03 23:26:00,55.8,0.0,29.74,ESE,113,0.0,0.0,0,0.00,,,0.00,WUHU216HW,2013-09-04 03:26:00,
2013-09-03 23:31:00,55.6,0.0,29.74,ESE,113,0.0,0.0,0,0.00,,,0.00,WUHU216HW,2013-09-04 03:31:00,
2013-09-03 23:36:00,55.6,0.0,29.74,ESE,113,0.0,0.0,0,0.00,,,0.00,WUHU216HW,2013-09-04 03:36:00,
2013-09-03 23:41:00,55.8,0.0,29.74,ESE,113,0.0,0.0,0,0.00,,,0.00,WUHU216HW,2013-09-04 03:41:00,
2013-09-03 23:46:00,55.8,0.0,29.74,ESE,113,0.0,0.0,0,0.00,,,0.00,WUHU216HW,2013-09-04 03:46:00,
2013-09-03 23:51:00,55.8,0.0,29.74,ESE,113,0.0,0.0,0,0.00,,,0.00,WUHU216HW,2013-09-04 03:51:00,
2013-09-03 23:56:00,55.8,0.0,29.74,ESE,113,0.0,0.0,0,0.00,,,0.00,WUHU216HW,2013-09-04 03:56:00,